CZ-6A DEB, 60702

Orbit data source: Space-Track

CZ-6A DEB, 60702 is space debris in LEO originally from a launch on Tue, 06 Aug 2024 UTC launched from the Taiyaun Space Center, China (TSC). Debris objects in space refer to the collection of defunct objects orbiting the Earth. Examples of debris include non-operational satellites, rocket bodies, and fragments generated from explosions, collisions, or faulty payload assembly.

Loading next visibility...
Identifier
60702, 2024-140DF
Orbit
LEO
Country
Flag of CNCN / PRC
Related business
Manufacturer
SAST
Mission
Spacecraft
Bus & Motor
Unknown
Mass
Unknown
Launch date (UTC)
2024-08-06 (2 years ago)
Launch vehicle
Unknown
Launch site
Taiyaun Space Center, China (TSC)
Object type
Payload
Rocket body
Debris
Shape & HBR
Unknown shape, 0.2 m
Radar Cross Section
Medium (>0.1 m² and <1 m²)

Expand to show TLE details & history
Last TLE update: 10 hours ago

TLE from 10 hours ago
0 CZ-6A DEB
1 60702U 24140DF  26171.48134573  .00001325  00000-0  37776-3 0  9992
2 60702  88.7050 247.1973 0082075 351.7693   8.2156 14.42717080 97422
Epoch: 2026-06-20T11:33Z
TLE epoch observation values (Epoch: 2026-06-20T11:33:08.271Z)
Latitude
-0.00007°
Longitude
165.21749°
Altitude
694.717 km
Speed
7.539 km/s
True Right ascension
16h 28m 47s
True Declination
0° 00' 00"
Sunlit
Object was in full shadow at epoch
Visualization orbit readout
Latitude
Unknown
Longitude
Unknown
Altitude
Unknown
Speed
Unknown
Apparent Right ascension
Unknown
Apparent Declination
Unknown
Sunlit
N/A
Visualization observer readout
Local Sidereal Time
08:32:39
Azimuth
Unknown
Elevation
Unknown
Doppler factor
Unknown
Orbital elements
Apogee altitude
804.931 km
Perigee altitude
687.981 km
Semi-major axis
7,124.593 km
Eccentricity
0.00821
Inclination
88.705°
RAAN
247.1973°
Arg. of periapsis
351.7693°
True anomaly
8.35138°
Mean anomaly
8.2156°
Eccentric anomaly
8.28335°
Mean motion
3.60913 °/min
Orbital period
99.75 mins
BSTAR
0.00037776
Loading maneuver chart data...
Computing Atmospheric mass density...
Loading historical data...
Loading historical data...
Loading historical data...
Loading historical data...
Loading historical data...
Loading historical data...
Loading historical data...

Documentation

Showing up to 5 results
|